GFSCGP_850_spd_180.txt.gz
Wind_Speed
12 4 7 10 9 8 8 5 5 4 2 4 2 13 21 27 24 24 26 27 28 29 27 27 22 21 24 25 28 26 22 20 15 16 17 16 11 10 8 6 6 7 10 13
2 7 12 9 11 6 12 8 5 5 7 4 7 11 17 26 29 32 32 32 34 33 30 30 28 24 25 29 29 28 27 23 21 19 19 16 13 12 12 9 7 8 11 12
8 8 6 8 5 6 1 4 4 6 4 5 10 3 14 19 25 26 29 33 34 35 35 34 32 30 27 32 32 31 31 27 25 21 19 18 18 16 15 11 9 8 11 13
7 12 11 9 12 10 6 9 9 7 2 4 8 4 12 17 19 23 29 31 35 36 35 33 33 33 33 33 32 33 34 30 28 25 25 23 20 20 16 13 13 10 5 8
10 10 12 14 11 21 16 8 15 15 10 2 5 4 6 10 15 19 28 33 35 37 36 35 35 31 30 31 34 34 33 33 31 30 28 27 23 21 16 15 13 12 10 11
13 11 10 14 12 17 7 8 15 6 4 7 16 6 4 12 21 22 29 35 36 38 39 35 32 29 29 29 30 33 33 30 31 30 28 28 26 23 20 17 15 14 12 13
5 13 14 7 7 6 14 13 4 3 2 7 9 4 9 23 16 24 28 36 37 42 41 38 35 34 32 34 32 30 30 30 29 28 28 28 26 24 24 22 19 15 15 15
10 9 19 7 11 9 8 19 6 7 5 5 6 7 10 27 31 37 43 49 42 42 43 39 36 33 33 33 34 32 32 30 28 28 26 24 23 23 22 21 19 17 14 16
8 9 6 13 12 10 8 3 8 7 2 3 4 6 6 17 20 27 31 33 37 44 46 43 39 34 33 33 33 32 31 28 27 26 24 23 21 22 19 18 21 20 17 17
5 2 7 7 9 10 8 5 3 3 3 2 5 5 4 10 20 20 23 35 39 44 47 44 40 37 35 35 34 33 30 27 25 24 23 21 20 20 18 17 16 17 17 17
6 4 7 5 8 15 1 3 4 6 5 6 2 6 8 17 19 23 29 41 41 48 50 47 42 38 36 34 34 33 32 29 26 24 22 22 21 20 18 17 14 16 18 18
11 5 7 12 3 9 9 12 8 5 4 2 5 6 6 14 15 27 34 40 45 53 53 47 44 41 39 37 35 34 32 31 29 26 25 22 19 19 17 14 14 15 13 13
12 8 1 6 7 4 6 6 6 6 4 6 5 7 3 7 15 35 36 40 44 47 47 50 47 46 45 42 40 37 34 32 30 28 27 24 20 17 16 14 14 12 14 14
23 5 17 10 8 5 4 7 7 8 5 6 7 9 13 6 12 15 34 43 42 44 48 51 51 50 46 45 43 40 36 30 28 28 28 26 21 17 17 13 15 17 15 13
17 16 9 21 15 6 5 8 9 7 7 7 9 8 12 6 11 23 40 39 39 39 41 50 55 53 51 47 45 43 39 33 30 30 29 28 22 18 17 16 17 17 14 14
9 10 10 16 11 6 11 10 17 12 6 8 8 8 8 11 12 18 34 39 38 43 51 56 57 54 53 50 47 44 40 38 35 35 33 29 24 20 21 23 21 18 15 15
6 17 9 16 15 11 7 8 13 13 13 13 11 12 5 6 9 26 29 35 41 47 54 55 56 56 54 49 48 45 41 38 39 38 34 31 26 25 25 24 20 16 16 14
7 19 9 12 6 12 9 8 10 21 21 9 7 8 10 16 28 26 31 37 38 41 45 53 52 53 52 50 46 44 42 41 41 38 35 32 28 27 26 23 18 16 15 11
17 8 4 9 13 3 5 5 7 9 15 9 12 8 13 22 11 14 31 36 37 35 31 30 33 40 48 47 43 44 43 42 40 37 35 31 30 28 25 21 18 17 14 11
10 19 7 5 14 15 8 6 7 6 4 5 12 10 11 11 5 6 36 44 40 37 33 34 37 40 42 42 41 42 43 40 38 36 33 31 30 26 24 19 19 15 13 11
5 12 16 6 10 5 7 9 9 7 8 8 15 24 18 7 12 18 26 38 42 42 39 38 36 37 40 41 41 40 38 36 34 32 31 31 27 24 21 21 17 15 13 10
6 6 6 2 5 5 11 8 16 12 16 20 12 14 26 23 22 26 29 41 41 40 39 38 40 39 40 41 37 34 34 33 32 31 31 28 25 24 22 19 16 15 12 11
2 6 7 8 7 7 15 14 9 3 12 11 17 19 28 26 24 24 33 36 36 38 38 38 38 39 39 37 33 30 32 33 33 30 27 25 26 24 21 18 16 16 14 14
8 5 4 5 3 4 21 16 10 10 3 9 22 22 29 27 26 26 27 30 33 38 39 40 40 39 38 36 32 23 30 33 31 27 26 28 27 24 19 18 16 16 15 15
4 10 7 1 2 14 17 16 8 8 7 4 20 28 28 30 32 32 35 36 38 39 41 42 42 40 38 36 32 28 29 30 30 26 29 29 27 23 23 20 17 14 12 13
4 4 4 4 8 9 5 10 10 6 4 11 18 22 25 25 28 32 37 39 40 40 41 41 42 40 37 34 33 30 28 24 27 29 31 30 28 27 23 19 17 17 14 14

GFSCGP_850_spd_183.txt.gz
Wind_Speed
2 4 6 11 9 4 6 5 6 3 2 4 5 9 18 24 22 21 23 27 28 26 24 25 23 20 21 28 28 27 23 20 15 16 17 16 13 10 9 9 7 7 6 7
2 6 9 7 3 4 5 4 5 2 6 4 6 8 16 22 27 25 25 25 30 28 26 27 25 25 23 26 30 31 27 23 18 16 15 14 12 11 12 13 8 6 8 11
8 6 9 8 5 6 4 5 3 3 5 4 6 1 9 13 17 22 25 28 30 30 31 29 29 29 27 28 29 31 29 25 22 20 17 18 18 18 16 13 10 7 9 10
7 6 7 5 9 8 8 11 8 8 4 3 4 4 7 13 18 18 27 28 32 32 32 31 32 32 31 29 29 29 29 27 25 23 21 21 21 21 17 14 14 12 11 9
9 9 12 8 10 9 10 8 10 5 5 4 3 1 5 15 16 19 27 32 33 36 35 34 34 34 32 30 31 31 29 28 27 26 25 24 23 22 20 19 18 14 13 15
9 4 9 11 10 12 6 2 3 5 4 2 6 7 5 8 20 19 28 33 36 37 36 35 30 29 30 31 31 31 31 30 29 29 28 27 24 23 23 20 18 14 15 15
2 13 3 3 2 6 4 7 3 4 1 7 6 7 14 10 10 18 24 33 37 39 37 36 35 34 32 32 33 34 33 33 32 31 30 28 26 25 26 24 21 19 17 16
9 7 12 6 9 8 8 9 6 6 3 5 4 6 10 19 25 31 33 38 36 39 39 38 35 34 33 32 32 33 35 35 35 32 31 28 27 28 27 25 22 21 18 16
8 7 2 9 5 11 5 5 10 2 5 3 5 7 6 6 14 19 25 24 31 38 42 40 37 35 34 35 35 35 35 33 32 31 29 29 27 27 25 22 20 20 18 17
6 2 6 4 7 6 10 7 3 2 6 7 5 5 5 3 11 13 16 27 34 39 41 40 39 37 35 34 35 35 33 31 30 29 29 28 27 26 23 20 19 17 16 18
6 4 4 7 8 16 4 3 4 5 6 6 2 6 6 10 12 18 21 31 37 42 44 42 39 38 35 34 35 35 34 32 32 30 28 27 25 22 20 19 17 14 13 12
8 5 4 10 1 5 10 10 8 5 5 3 4 7 4 10 14 21 22 28 43 45 45 43 41 38 38 38 36 36 35 35 33 31 29 26 23 20 19 18 16 14 14 15
8 5 1 2 5 2 6 6 6 5 4 6 7 7 3 4 7 21 24 32 36 48 45 43 43 44 43 41 39 38 36 36 34 33 31 27 22 18 16 16 15 15 13 13
9 5 12 8 6 6 6 7 7 8 5 6 6 8 6 7 11 16 29 35 41 44 52 50 47 47 47 46 45 43 40 38 37 36 33 28 22 19 16 17 17 16 14 14
9 8 7 18 6 2 6 7 10 8 8 8 8 9 10 8 10 17 35 41 34 38 47 53 51 50 49 47 45 45 43 40 37 34 33 28 23 21 19 20 18 17 18 14
8 6 9 9 18 21 9 8 8 11 6 5 7 9 9 5 6 7 25 30 34 41 49 55 57 53 51 49 47 46 44 42 37 33 31 27 26 26 23 22 20 19 16 15
5 2 7 19 7 6 11 22 10 7 6 10 9 11 4 6 7 13 25 34 43 46 50 52 55 57 55 52 49 46 44 42 38 36 31 28 28 29 26 24 22 21 17 17
8 4 3 8 7 10 13 9 10 9 7 10 6 11 9 13 20 15 21 42 47 50 51 52 53 53 54 52 49 47 44 41 39 39 35 31 30 31 28 25 23 20 18 15
18 5 4 7 13 3 5 7 12 8 12 9 12 8 10 22 8 15 23 31 47 45 43 40 37 38 47 51 48 44 43 40 39 39 35 33 32 33 29 26 24 21 19 16
16 14 4 1 9 16 8 5 13 6 16 8 13 12 9 10 4 8 26 31 37 38 36 40 39 40 42 46 46 44 42 40 39 38 33 32 33 32 28 26 24 20 18 14
5 4 15 12 9 7 8 8 14 9 8 7 18 22 20 8 15 27 19 31 39 41 37 38 40 37 38 40 41 40 39 40 38 34 31 31 32 29 26 24 22 22 19 15
7 8 6 6 4 5 11 8 16 8 14 13 11 9 20 35 36 31 31 34 41 41 36 38 36 34 33 34 35 34 36 37 35 31 29 31 31 29 26 24 24 22 19 14
1 3 4 12 13 6 19 19 17 27 21 19 7 8 15 30 37 35 24 24 35 37 39 36 33 31 29 31 33 34 33 32 31 30 31 31 30 28 27 25 24 22 17 15
5 4 2 1 4 7 11 17 26 28 22 16 13 13 16 21 34 37 36 32 34 39 41 39 36 32 30 31 31 29 28 29 29 32 33 31 29 27 26 24 22 19 16 15
5 7 8 6 8 9 5 29 23 18 16 17 18 19 20 19 17 22 27 31 34 37 39 36 33 32 33 33 32 30 29 28 31 32 32 30 29 29 29 27 22 17 15 13
6 5 4 4 14 9 11 3 22 17 17 16 20 23 30 29 28 27 25 27 30 33 31 32 32 34 35 34 33 31 29 26 31 33 32 28 30 31 29 26 22 19 16 13

GFSCGP_850_spd_189.txt.gz
Wind_Speed
10 10 14 15 15 5 13 9 8 5 4 11 13 8 12 20 19 20 21 22 23 24 23 24 26 27 27 27 26 24 21 18 18 15 14 13 10 8 7 7 6 6 7 9
6 18 18 10 9 6 10 8 8 2 6 9 5 11 10 20 22 23 24 23 23 23 21 23 26 28 30 30 28 26 24 22 20 17 15 13 11 11 9 8 7 7 8 9
21 16 12 12 11 11 9 10 7 5 7 4 2 7 10 15 18 21 22 23 23 25 24 24 25 29 30 31 30 30 28 25 24 20 18 16 15 12 10 7 7 9 10 12
14 8 17 14 16 13 13 12 6 8 7 4 4 4 7 15 18 21 25 26 26 26 26 25 25 29 30 30 28 28 29 29 25 24 22 19 17 14 11 9 8 9 11 14
16 16 18 19 20 17 9 8 10 7 6 2 5 6 3 6 15 22 28 30 28 28 28 29 28 29 30 28 28 26 27 30 28 26 25 22 21 17 13 12 10 10 11 12
16 4 12 20 13 17 11 9 6 5 2 6 10 9 9 7 14 18 26 30 30 28 27 26 27 27 29 29 28 26 27 28 30 30 28 26 24 20 17 13 13 12 13 13
16 7 5 9 16 14 13 11 3 4 5 6 2 6 15 9 8 12 25 32 31 29 27 26 27 28 31 31 30 29 28 29 30 31 30 28 25 22 19 16 15 14 15 15
15 15 13 13 17 13 22 17 9 8 6 5 3 6 4 3 5 19 20 30 29 29 27 26 27 29 31 32 32 31 31 31 31 31 31 28 27 24 21 18 16 16 17 17
13 16 16 11 12 17 13 12 13 4 2 4 3 5 13 1 0 14 18 26 29 30 28 28 27 29 30 31 33 33 33 32 32 32 31 29 27 25 22 18 17 17 16 16
9 10 13 19 10 15 14 18 10 5 7 7 5 6 9 10 2 11 17 25 27 27 26 26 27 29 29 29 30 31 33 33 32 31 31 29 27 24 21 18 17 16 16 16
11 6 11 16 17 17 9 14 6 12 4 8 5 7 5 10 4 15 18 25 27 27 27 28 28 29 29 28 30 31 32 33 34 32 30 28 26 24 21 19 17 16 17 17
13 7 8 17 22 15 21 17 19 12 7 2 3 6 2 6 3 19 21 23 23 27 29 30 30 30 30 30 30 31 32 32 31 30 29 28 27 24 21 19 17 17 19 18
6 11 9 8 6 11 19 17 21 14 8 11 12 6 1 3 2 17 22 21 21 23 27 29 31 33 33 32 32 32 32 32 30 30 29 29 27 23 21 19 17 19 19 17
6 6 19 14 20 18 23 20 17 21 12 12 15 16 14 8 3 11 19 20 21 27 29 31 34 37 36 34 33 34 33 33 33 34 33 31 28 24 22 20 19 20 18 17
4 10 11 21 2 17 18 25 21 22 21 18 18 14 16 12 6 13 21 20 21 24 29 34 37 38 37 37 37 37 37 37 36 35 34 31 28 25 23 21 21 20 18 16
10 2 3 19 21 10 18 18 27 24 22 17 16 18 16 14 10 8 12 21 27 34 38 40 40 38 38 38 39 40 41 41 40 37 34 30 28 27 26 25 24 22 19 17
6 6 3 16 18 20 23 23 16 22 26 25 22 23 10 9 10 17 22 22 31 39 42 45 45 45 42 41 42 44 44 43 40 37 35 32 28 27 28 29 27 24 21 19
8 8 4 3 11 22 17 19 22 14 17 22 22 15 18 18 21 21 24 26 33 36 39 40 47 50 47 44 45 46 43 42 41 40 38 35 32 29 30 32 30 26 23 21
17 6 4 4 14 7 12 7 22 18 21 17 20 17 14 15 7 16 23 26 26 26 27 27 39 47 51 50 46 46 47 47 45 44 42 38 34 33 32 33 32 29 25 21
15 15 8 3 8 14 13 13 11 17 20 18 22 18 14 9 9 10 20 21 18 21 24 24 29 39 46 52 52 52 51 50 49 46 42 38 34 33 33 33 32 29 26 21
7 8 15 13 5 7 9 16 15 17 7 22 27 27 25 13 14 25 20 16 18 21 19 20 24 31 32 36 44 47 48 49 45 38 35 32 30 30 32 31 31 29 27 24
9 11 7 8 8 11 7 2 13 6 15 13 28 32 27 34 33 29 30 21 20 24 25 24 24 25 26 25 29 34 37 36 37 34 31 29 27 27 30 31 31 30 27 25
4 2 2 8 6 6 14 16 19 17 15 22 24 31 39 38 36 28 26 27 29 27 28 27 27 27 25 26 28 28 30 28 28 27 27 26 25 27 28 30 32 31 29 27
1 4 2 4 4 14 32 17 8 18 18 23 22 25 36 31 28 22 19 29 29 28 26 23 24 25 25 27 29 30 29 26 26 25 25 25 26 28 29 31 31 30 29 26
4 6 5 5 9 26 2 18 24 27 26 25 26 24 25 27 25 20 18 25 33 29 30 25 25 29 30 31 33 33 28 26 27 25 25 26 28 29 32 33 32 31 26 21
5 7 5 3 14 14 22 26 27 28 29 26 22 25 30 29 24 24 21 17 28 32 31 28 26 29 31 33 33 29 27 27 27 27 28 29 31 33 34 33 34 30 22 18

GFSCGP_850_spd_192.txt.gz
Wind_Speed
23 14 19 20 17 17 7 8 8 4 3 10 11 8 15 19 21 23 26 27 28 27 26 26 25 25 22 21 21 20 20 18 14 12 10 9 8 6 5 3 4 3 5 8
18 22 23 20 18 16 14 11 11 4 3 11 8 10 10 20 23 23 26 28 29 27 27 27 28 27 26 24 24 24 24 21 16 13 11 10 9 6 6 5 4 3 6 9
27 22 23 21 17 17 16 14 10 11 6 12 9 14 13 17 22 22 24 26 28 29 30 30 30 30 28 27 27 26 28 24 21 17 14 14 12 10 6 4 2 5 6 9
27 26 24 23 23 20 19 14 11 7 10 8 5 8 14 18 21 21 26 27 28 30 30 30 31 30 30 29 27 26 29 27 24 23 17 16 11 9 7 6 5 4 7 8
21 26 22 22 26 23 19 6 11 10 11 12 11 7 6 16 16 23 27 29 28 30 31 31 30 29 29 28 28 27 29 30 28 26 24 18 17 11 9 7 8 7 8 7
22 19 21 28 25 23 18 8 9 9 11 11 15 8 8 12 16 20 27 30 29 29 31 31 30 28 28 27 27 26 27 30 31 31 28 26 19 15 12 9 8 6 6 6
21 23 17 18 25 21 19 17 10 10 10 11 6 7 15 4 5 9 23 33 32 30 31 31 32 32 30 30 28 27 26 29 30 31 31 28 26 22 19 16 10 10 8 7
20 22 23 17 26 20 26 23 13 11 12 12 7 8 6 2 3 7 16 33 32 31 31 32 33 33 32 30 30 28 26 28 29 31 32 30 27 23 18 16 14 10 9 9
20 29 28 22 21 26 24 25 23 13 9 11 11 11 12 14 2 7 18 31 34 33 31 31 32 33 32 31 31 30 27 27 29 29 30 30 28 25 18 18 16 12 13 10
14 17 19 27 20 25 24 22 21 12 18 14 13 10 8 9 3 8 15 29 32 31 30 30 30 31 30 30 29 28 27 26 27 27 27 28 27 25 23 21 19 16 15 16
23 16 23 22 21 23 20 20 20 19 15 12 12 12 13 3 4 11 16 28 31 32 30 30 29 28 28 27 28 28 28 27 27 28 28 28 27 26 24 22 20 18 17 16
26 13 15 27 26 26 27 23 26 16 20 14 10 7 8 2 3 12 22 26 28 28 29 28 28 27 27 27 27 27 27 27 28 30 30 28 27 26 23 22 20 19 19 16
15 14 16 19 23 26 27 28 25 24 17 20 14 7 7 5 5 15 22 25 26 27 28 27 27 27 27 28 27 27 27 27 29 31 30 29 27 26 24 22 19 20 19 17
8 16 23 20 24 23 28 27 28 28 19 19 20 19 12 4 8 12 21 25 25 26 27 27 27 27 27 27 28 28 27 28 30 31 31 30 28 26 24 22 20 21 20 17
5 17 21 25 19 23 26 29 29 28 28 24 19 23 15 6 3 10 15 21 26 28 29 30 30 29 28 29 30 31 30 30 31 32 32 32 29 27 25 24 23 22 20 18
11 9 16 21 23 13 28 30 29 28 28 25 26 19 20 14 5 8 17 22 25 28 30 31 30 30 32 35 35 35 35 36 36 35 35 31 31 29 28 26 24 25 22 20
7 4 9 19 21 21 19 26 30 27 27 27 25 23 16 13 10 11 14 21 26 27 29 31 33 37 39 40 40 39 38 39 41 40 37 35 33 31 29 27 28 27 25 21
8 7 6 11 20 27 18 20 21 24 28 27 25 23 21 16 17 18 14 14 23 28 31 33 34 38 40 39 38 39 41 43 43 40 38 38 36 31 28 27 28 27 27 24
14 8 5 9 16 15 21 21 23 20 19 18 24 26 25 21 25 25 20 17 18 23 26 33 35 43 44 43 41 40 43 45 42 42 42 39 35 32 30 30 30 30 29 27
18 14 9 7 17 24 13 20 10 18 21 21 21 19 18 26 12 13 22 23 22 23 24 29 28 28 34 50 47 47 46 47 46 45 44 40 37 33 30 31 33 31 30 27
14 12 15 12 9 10 3 12 19 19 12 21 27 26 25 19 18 22 19 20 22 22 24 25 23 28 32 41 55 54 53 53 50 47 42 38 34 31 30 31 32 32 31 30
13 11 10 13 13 12 10 8 15 7 18 17 12 31 30 30 28 28 24 18 18 18 19 20 20 21 23 35 50 59 57 53 48 42 38 33 31 28 29 33 32 32 32 31
8 11 9 11 13 2 8 13 16 13 16 17 19 19 15 29 35 35 32 28 27 24 22 22 23 23 23 31 38 46 54 53 48 40 37 33 29 27 31 32 32 34 34 33
6 1 5 1 8 7 14 9 13 15 19 20 19 22 22 21 27 35 35 31 28 28 27 26 27 26 26 32 37 38 38 41 38 34 31 31 30 31 30 30 33 33 35 35
4 3 1 10 6 20 8 22 23 24 22 24 23 22 23 22 25 28 33 32 28 28 27 31 31 30 30 35 35 36 36 35 33 31 30 30 28 32 32 27 27 28 30 31
6 6 2 5 12 10 17 23 24 25 27 26 26 27 22 21 25 20 23 23 19 22 24 30 28 25 27 32 32 36 36 34 35 33 31 30 30 29 34 36 35 31 31 31

GFSCGP_850_spd_195.txt.gz
Wind_Speed
24 17 20 23 23 22 12 18 15 11 11 4 10 6 19 21 20 21 24 27 27 26 26 26 25 24 23 21 21 21 19 16 13 11 9 8 7 5 4 2 4 2 3 5
21 23 24 23 24 24 26 26 8 6 7 5 14 12 14 20 22 25 26 28 30 29 27 28 28 26 26 24 23 22 20 17 16 11 10 9 8 6 5 4 4 2 2 4
27 26 24 24 24 23 19 16 11 12 4 11 14 14 15 22 23 24 26 28 29 31 32 31 31 30 28 27 26 24 22 19 16 14 12 12 9 9 4 3 1 3 2 5
27 28 26 26 27 24 22 17 14 10 9 12 5 13 16 18 20 21 26 29 31 32 32 32 33 32 31 29 26 25 24 22 19 19 13 12 10 7 6 6 6 3 3 4
25 28 27 25 27 25 21 20 16 13 14 16 19 8 7 19 19 21 24 28 29 31 33 35 34 33 32 29 28 26 26 24 23 21 19 14 13 9 7 6 8 4 7 5
23 28 29 31 25 27 22 20 11 12 14 14 18 13 13 19 19 21 25 28 30 31 32 32 32 32 32 30 28 27 29 29 28 23 22 22 15 13 10 8 7 4 4 5
22 28 25 27 28 25 26 21 11 13 13 14 10 15 4 24 7 18 23 30 31 30 31 33 33 33 33 33 31 29 30 31 29 26 24 23 23 17 13 13 8 7 6 6
21 20 30 21 24 25 23 25 13 19 16 14 14 9 7 33 8 15 24 30 32 31 31 33 34 34 33 33 32 30 29 28 27 25 25 26 24 20 16 14 11 9 8 7
23 26 29 26 25 25 27 25 23 24 9 10 3 19 14 10 13 5 14 31 33 32 32 33 34 34 33 33 33 31 29 27 25 25 25 27 27 23 16 16 14 11 13 9
26 19 26 28 26 26 30 21 22 18 18 3 11 15 12 16 10 10 10 28 33 31 31 31 32 33 32 32 31 30 28 26 25 24 24 24 26 25 23 21 18 15 12 12
28 23 21 23 26 26 22 24 21 22 19 7 12 20 17 13 9 2 12 26 32 32 31 31 31 32 31 31 31 30 29 27 25 25 24 24 23 23 22 22 20 19 16 14
21 24 18 29 24 29 28 28 26 17 23 15 7 12 20 13 9 6 17 25 29 30 30 30 30 30 31 31 31 31 30 29 28 27 27 25 23 22 22 22 20 19 17 13
9 22 17 23 26 27 28 30 28 23 21 21 7 12 20 11 6 14 21 24 27 29 29 29 29 30 31 31 31 31 31 29 27 29 27 26 24 24 24 21 21 20 17 14
10 17 23 20 22 23 29 28 28 28 19 20 17 3 12 10 9 16 23 25 27 29 30 30 30 31 32 32 32 33 32 29 30 29 28 29 28 26 24 24 23 20 18 16
10 17 23 28 25 24 27 30 28 30 25 25 20 24 31 14 12 16 22 24 27 27 30 31 32 32 33 33 33 33 32 31 31 32 32 32 31 28 27 25 23 21 18 16
9 15 21 25 26 23 25 30 32 28 29 27 23 22 23 12 15 17 21 25 27 28 30 31 31 32 34 36 37 36 37 36 35 35 35 33 32 30 29 26 25 21 18 15
11 13 18 22 24 26 22 28 31 28 28 27 26 17 25 27 14 18 17 23 26 29 30 32 35 36 38 38 40 38 38 37 37 38 37 36 35 33 30 28 26 20 25 11
10 8 11 16 20 28 12 19 21 27 26 27 23 22 21 13 16 14 20 22 24 26 28 30 32 34 38 35 34 35 35 38 38 39 39 39 37 34 32 30 28 26 29 30
15 9 7 12 18 14 21 20 19 24 27 26 25 25 18 26 14 16 17 18 24 26 26 29 30 33 31 34 36 38 38 38 41 42 43 43 39 38 34 32 31 30 31 33
17 13 10 9 17 28 18 21 16 16 18 21 26 23 24 22 16 12 22 15 15 14 22 27 29 28 30 36 37 39 43 42 44 45 48 43 41 39 37 35 33 34 33 28
17 14 15 12 9 12 17 19 25 19 9 11 19 17 20 16 16 21 17 15 20 19 18 20 25 28 35 37 40 43 45 48 47 46 45 42 42 41 39 36 32 35 32 27
20 13 12 14 12 15 12 6 1 8 10 13 13 6 22 23 25 22 22 23 15 20 18 18 22 28 32 34 40 45 51 51 47 44 43 44 43 40 31 34 37 35 33 33
17 18 11 14 14 8 14 13 15 14 14 13 14 12 12 11 23 29 30 24 26 19 17 18 20 25 27 34 42 46 52 50 46 46 44 43 42 38 33 37 39 36 36 32
11 6 17 10 19 13 9 12 16 18 17 16 16 18 15 14 14 16 17 29 29 28 26 24 23 24 28 28 31 35 39 42 45 46 44 42 39 34 37 40 37 33 37 30
5 12 12 10 15 11 10 13 18 20 19 21 21 18 17 18 20 20 22 23 24 27 28 27 27 32 34 33 31 31 39 42 48 46 42 39 30 32 40 40 36 30 31 32
5 6 4 5 12 11 12 17 18 20 20 21 24 24 20 20 23 21 23 23 25 28 27 27 27 30 34 34 33 33 35 43 43 42 40 36 32 37 39 32 32 32 25 28

GFSCGP_850_spd_198.txt.gz
Wind_Speed
26 17 18 22 21 18 7 8 11 21 18 22 6 19 24 28 26 28 26 28 34 31 27 26 26 24 22 23 21 24 20 19 15 11 14 10 9 6 5 4 8 2 5 6
21 23 24 23 24 15 15 7 25 19 14 12 6 18 27 25 27 31 33 31 34 32 34 30 28 27 25 27 25 26 24 18 18 15 14 10 11 10 7 5 5 3 2 5
26 27 25 24 24 23 20 22 27 22 20 15 9 11 24 26 27 30 28 30 30 35 41 35 35 31 29 28 26 27 26 23 22 14 14 15 15 11 13 8 2 2 2 5
26 28 27 26 26 23 22 24 25 16 11 12 13 9 3 22 23 24 31 31 33 33 34 35 34 32 32 30 29 26 29 26 22 21 15 16 16 10 6 5 8 2 6 9
25 29 28 29 27 23 22 24 19 17 10 14 12 9 13 23 23 23 27 35 34 36 36 36 34 34 34 29 29 28 27 28 23 26 18 16 16 11 8 8 9 6 7 7
28 28 29 28 26 24 22 25 23 15 12 14 18 15 13 12 15 22 25 33 36 35 36 38 35 38 36 32 30 30 30 30 28 24 24 21 16 17 12 11 7 2 7 8
25 28 28 30 27 27 23 22 14 13 14 13 18 16 6 16 6 16 22 31 34 36 36 40 39 43 38 37 35 33 33 31 31 29 26 26 23 20 18 13 11 6 4 4
21 21 28 21 31 25 26 23 15 17 15 16 7 10 1 21 24 51 42 33 33 34 35 37 40 40 40 36 36 35 35 33 32 32 29 25 27 24 21 19 15 8 6 5
19 27 21 29 25 27 25 21 23 25 21 6 8 6 9 21 20 18 26 34 34 34 35 36 36 38 38 38 37 36 35 34 32 32 30 29 27 25 23 16 11 13 16 15
26 22 27 24 29 26 29 18 20 17 23 11 3 4 13 11 16 17 16 31 36 35 34 36 36 37 36 36 36 36 34 35 31 29 31 30 29 26 23 19 20 15 11 11
26 25 25 25 27 26 19 21 20 22 17 14 12 6 10 16 20 17 14 34 38 37 34 35 35 38 37 35 36 37 35 34 32 29 29 29 29 27 25 25 22 20 19 19
15 22 21 30 26 29 26 26 26 16 19 15 8 5 1 17 24 14 15 36 37 35 33 35 34 37 38 36 37 38 36 35 32 30 30 29 28 25 25 24 22 21 20 17
12 9 16 25 22 25 29 27 26 25 17 19 13 3 5 21 24 13 20 33 36 34 33 34 34 37 38 37 37 37 37 36 34 30 32 30 29 27 25 23 21 22 19 15
9 11 15 17 21 18 25 28 27 26 17 16 18 13 20 7 17 8 24 30 32 32 33 35 34 37 39 38 38 38 38 36 35 33 32 34 32 29 26 24 22 20 18 17
9 15 17 23 26 26 25 24 30 27 23 22 19 18 14 17 19 20 25 26 29 29 32 36 36 37 39 38 37 38 37 38 36 35 34 35 33 31 26 26 24 23 21 19
13 14 16 24 24 28 24 29 29 28 27 25 23 8 9 15 19 18 18 26 29 29 32 34 35 37 40 41 39 41 38 40 38 37 37 35 34 33 30 28 26 26 25 17
13 11 12 20 19 24 25 22 27 24 26 24 23 15 15 12 13 35 21 26 29 30 33 35 38 39 40 43 42 41 41 40 40 40 38 36 35 34 33 31 31 31 30 22
14 14 12 15 17 22 15 21 19 26 25 24 21 13 20 16 45 24 26 27 29 31 33 34 36 38 39 39 41 39 40 39 41 42 41 39 37 37 35 34 35 33 32 30
16 14 9 13 15 17 24 22 17 16 22 23 17 19 29 46 16 24 16 31 30 32 32 35 36 35 36 37 38 40 39 43 42 44 44 42 40 40 38 37 36 35 34 34
19 16 12 12 17 23 16 21 16 10 11 14 16 14 17 15 10 4 50 31 33 31 32 31 33 35 36 37 37 37 40 41 45 45 45 44 43 43 42 38 37 36 38 38
17 14 15 13 10 12 13 18 20 13 3 19 14 17 22 7 4 24 27 17 31 32 33 33 35 36 37 37 38 41 41 45 46 45 45 45 45 45 42 39 39 38 41 39
17 14 13 15 12 15 21 9 3 11 20 21 22 24 23 14 29 17 27 21 13 27 24 21 34 39 38 38 38 42 44 43 44 45 45 45 46 46 42 41 40 41 41 39
19 16 13 14 14 14 21 17 17 17 16 19 18 18 18 14 12 8 3 27 23 8 4 22 26 28 25 36 40 42 40 41 44 46 45 46 45 45 42 42 43 43 42 40
3 12 17 12 18 22 18 18 17 16 17 16 17 17 14 12 12 13 14 16 18 13 11 13 11 18 25 30 31 39 40 43 44 45 47 46 46 45 42 42 44 43 44 44
9 14 8 16 13 10 17 17 15 14 14 17 17 17 16 17 15 15 17 17 20 20 17 16 18 22 25 28 27 32 38 38 40 42 45 47 47 46 44 46 46 45 45 41
9 8 5 4 15 13 13 16 15 14 16 18 19 18 16 15 17 16 19 19 21 21 22 22 22 27 25 28 31 32 31 33 38 41 43 44 43 45 43 48 46 44 41 38

GFSCGP_850_spd_201.txt.gz
Wind_Speed
21 7 9 12 11 15 3 7 8 6 18 14 12 9 11 24 22 27 28 37 36 37 33 33 30 30 23 22 21 25 25 17 14 23 20 18 13 11 7 5 6 3 4 3
10 15 15 13 15 17 12 10 4 6 12 7 19 12 17 18 24 31 30 34 36 36 32 36 34 32 33 28 24 27 24 22 16 21 18 12 10 6 8 8 3 3 3 5
17 18 17 18 16 18 16 9 10 11 6 14 14 14 15 20 21 27 29 31 36 40 37 40 36 37 36 32 30 32 26 24 20 20 19 12 11 13 10 7 6 2 5 8
13 18 19 21 19 15 16 14 14 18 8 13 11 4 21 20 18 20 29 30 39 39 42 39 38 34 35 34 32 28 32 28 22 22 20 19 16 14 9 9 5 2 6 7
16 20 17 24 21 18 17 19 18 18 14 13 13 6 11 22 21 22 26 33 30 40 44 44 46 41 35 34 35 29 32 31 27 24 23 22 20 16 4 7 6 6 4 3
18 27 19 22 18 22 17 18 17 14 10 9 10 6 5 21 28 20 24 34 38 35 43 44 46 46 40 35 37 32 29 32 29 29 24 21 25 20 13 10 10 7 3 7
15 20 21 20 20 19 19 12 8 5 5 6 10 5 3 6 17 23 18 33 41 41 40 44 45 47 44 36 40 36 31 30 32 30 28 24 24 23 18 17 16 10 6 5
10 15 20 13 12 19 16 13 7 7 6 8 5 1 1 12 27 37 43 37 41 44 46 46 51 48 47 45 42 39 34 30 32 32 34 29 24 27 24 20 17 11 8 8
7 16 15 19 20 15 19 13 11 8 15 5 4 2 5 3 9 18 17 22 35 46 48 45 52 47 43 51 43 41 37 33 31 33 33 33 30 27 25 23 19 15 13 12
18 14 14 23 16 22 11 11 8 7 11 9 3 5 6 11 15 12 6 20 25 47 46 47 53 50 47 50 47 44 40 35 32 32 33 33 31 29 27 25 22 19 14 15
17 15 21 12 10 16 15 13 10 4 6 6 4 6 8 12 10 11 12 25 36 48 49 47 52 50 50 49 47 47 43 38 35 31 32 33 33 31 29 26 23 20 17 17
5 3 13 21 20 20 19 11 13 9 8 5 4 5 4 10 3 4 7 15 45 47 48 48 46 48 51 50 46 45 42 40 37 34 31 33 33 32 30 29 25 23 23 21
7 5 3 7 11 16 10 19 10 5 4 9 3 5 2 6 6 4 5 30 27 42 44 46 45 51 51 51 48 46 44 41 38 35 34 32 33 32 31 29 27 26 26 24
5 4 4 6 8 5 8 18 17 11 9 8 10 5 7 11 9 6 15 30 43 41 45 46 46 51 52 49 45 46 46 43 40 36 33 34 35 33 31 27 27 27 27 25
3 5 7 16 17 15 15 16 22 13 14 11 12 8 10 10 14 10 4 7 31 36 43 45 47 50 51 48 45 46 45 44 42 39 36 36 35 33 30 28 28 28 28 25
14 5 12 15 13 14 18 17 16 21 17 8 12 3 6 10 4 11 18 13 17 38 43 49 48 48 52 49 47 47 45 45 43 41 39 36 35 35 33 30 30 30 29 27
7 9 8 5 8 10 9 7 11 12 17 7 13 9 13 6 8 17 30 34 22 37 44 48 49 48 50 49 46 48 47 44 44 41 39 37 37 37 35 32 31 33 31 30
8 7 4 5 7 4 7 8 12 12 16 13 5 15 18 17 25 34 41 39 14 33 39 46 47 46 47 46 45 45 46 45 45 43 41 38 37 37 36 35 36 35 34 34
6 4 5 4 4 11 16 9 7 7 7 6 10 11 9 17 14 3 13 15 19 36 35 40 45 44 44 45 46 45 44 45 44 45 43 41 39 38 38 39 39 38 37 38
8 6 3 4 4 4 7 12 23 8 3 19 19 7 14 19 6 11 16 33 13 32 34 37 40 41 41 43 43 44 44 45 47 47 46 44 42 41 42 41 41 39 39 41
5 5 6 9 5 8 13 17 19 4 5 18 21 23 14 5 11 27 22 15 18 10 27 38 40 43 41 39 40 42 45 48 48 47 46 46 45 45 45 43 42 40 40 42
8 5 5 5 4 7 20 11 6 6 14 20 25 29 26 13 11 17 31 12 5 12 18 39 42 43 40 40 39 39 42 42 43 44 46 46 47 47 46 44 43 41 41 44
11 10 7 6 5 5 23 18 18 19 18 24 28 29 28 26 23 9 18 12 17 11 15 22 44 42 42 41 39 39 33 37 41 43 44 45 46 47 47 47 45 43 44 46
8 8 8 9 10 9 20 23 22 19 18 20 21 25 27 23 22 18 6 15 12 6 10 9 4 42 43 41 40 36 34 36 38 41 43 44 46 47 46 48 47 46 48 50
11 15 10 3 16 18 28 26 21 19 15 18 15 17 23 24 21 23 15 6 10 10 10 9 7 5 28 37 35 33 39 41 41 42 43 44 44 46 48 49 50 52 51 51
5 5 5 3 15 11 20 25 30 28 16 18 17 19 19 19 18 18 17 11 7 10 17 16 12 11 9 11 26 25 28 32 36 38 40 43 45 47 49 50 52 52 51 49

GFSCGP_850_spd_204.txt.gz
Wind_Speed
16 2 6 10 8 7 5 5 5 5 9 6 6 5 7 20 26 28 32 35 35 36 33 33 30 26 31 26 22 16 23 21 30 25 21 20 16 9 8 5 2 3 2 3
1 8 12 8 6 9 5 5 6 6 6 5 5 4 7 15 23 31 30 31 35 34 37 36 34 28 30 28 23 19 23 20 25 24 21 19 19 11 8 7 4 3 1 1
11 12 12 10 11 9 6 9 6 7 3 4 3 6 6 7 13 29 32 36 37 40 41 41 38 35 30 31 28 24 24 22 19 25 24 21 17 13 10 11 7 2 3 3
9 15 12 13 13 9 10 12 10 8 10 5 5 4 2 7 14 19 30 35 37 43 43 42 39 40 38 35 30 27 26 25 22 27 27 24 15 15 12 11 9 4 2 4
9 9 12 17 17 12 12 11 12 12 9 3 4 1 7 14 16 16 27 34 39 41 46 45 45 44 43 38 35 32 29 28 25 28 29 25 21 17 14 12 12 6 2 2
7 12 8 16 12 16 17 8 3 7 5 7 14 10 12 9 23 21 26 34 40 43 46 47 46 45 46 43 38 36 32 31 29 28 32 27 24 21 16 17 13 7 5 5
4 9 11 12 6 8 8 4 8 3 1 11 8 2 13 20 20 24 28 39 40 47 45 48 50 48 46 46 42 36 35 32 34 32 31 29 27 24 22 18 14 11 10 8
8 11 10 7 15 10 9 11 6 6 4 11 2 7 6 5 20 36 44 45 42 45 48 49 54 54 50 47 44 40 38 34 33 35 33 30 27 30 27 22 18 15 16 13
6 8 4 13 8 9 11 6 11 7 5 2 3 3 5 7 8 21 28 25 37 39 47 50 51 54 53 49 47 44 40 38 33 35 35 33 29 31 31 25 20 17 14 14
10 8 7 19 6 12 9 6 1 1 6 5 5 3 5 7 11 15 16 24 30 37 37 45 51 55 56 53 51 46 41 40 35 32 36 36 32 29 32 28 25 22 19 18
4 8 12 5 7 9 2 6 2 4 6 8 4 6 8 18 20 22 20 29 35 43 47 45 51 54 56 54 53 50 44 42 40 34 34 37 36 33 31 31 27 25 23 20
2 2 9 19 5 5 6 6 7 8 9 3 5 8 5 12 17 24 27 34 33 45 51 49 51 52 51 53 51 53 50 45 42 36 34 35 37 35 34 33 30 28 27 25
7 4 3 2 5 1 6 6 6 2 2 13 5 6 4 4 7 18 22 6 19 29 44 48 46 53 52 54 53 54 55 49 44 40 36 34 36 37 38 35 32 30 30 27
9 1 3 6 2 2 6 9 4 7 6 7 7 6 5 7 9 10 18 17 19 34 48 47 48 50 54 56 53 53 55 51 47 43 39 37 37 38 38 35 33 32 32 32
4 0 6 9 8 6 9 10 6 2 9 9 11 10 9 12 3 4 7 7 23 31 39 46 49 50 54 54 52 54 53 51 49 44 42 40 38 37 37 35 34 34 33 33
7 4 6 4 5 6 6 8 6 6 4 6 6 5 7 14 17 12 17 24 17 19 33 36 43 49 52 53 53 53 53 50 48 45 43 40 38 38 38 36 35 35 34 35
4 4 6 6 9 6 2 2 4 5 5 8 8 9 8 6 9 16 24 25 25 29 31 39 47 52 52 53 51 54 53 49 47 46 44 42 40 39 37 36 36 36 35 35
4 4 1 5 6 2 5 9 5 4 9 14 12 7 16 19 28 28 25 19 19 24 33 40 46 49 52 50 50 49 47 48 44 45 44 42 41 39 37 36 38 38 35 37
5 2 3 2 2 6 3 7 4 3 4 15 16 18 12 19 12 8 19 22 22 27 32 41 46 52 50 50 48 48 48 48 44 45 44 41 40 39 39 39 40 39 38 38
4 4 3 3 3 2 3 16 27 7 1 16 17 17 3 17 5 6 24 13 16 13 23 34 44 52 48 48 47 48 47 49 49 45 44 40 39 39 40 40 41 39 40 40
2 1 4 3 3 7 10 19 16 7 4 19 20 25 16 3 6 27 25 23 16 11 19 31 42 45 47 46 45 48 47 49 44 42 42 43 41 41 40 40 41 41 41 42
4 3 4 2 2 4 24 6 6 6 11 13 21 28 28 26 14 8 23 19 21 15 8 18 33 45 43 45 44 46 49 46 44 44 43 43 42 42 42 43 43 42 42 42
1 3 4 5 4 3 18 12 20 19 7 17 23 25 27 28 27 15 9 13 17 17 14 7 26 41 45 43 43 43 45 47 46 46 44 43 43 44 45 46 45 45 45 45
5 9 2 7 7 15 18 34 38 32 11 16 20 21 24 25 25 25 18 13 13 14 17 16 4 27 39 42 44 42 41 43 44 43 43 43 44 44 46 48 48 48 49 49
4 12 10 5 9 20 22 37 36 36 13 17 18 20 21 23 23 22 21 16 12 12 14 10 13 13 18 34 39 42 45 43 41 41 42 43 44 46 47 49 50 51 52 53
7 5 5 3 16 13 19 33 30 31 15 18 18 19 20 20 21 20 20 19 17 10 8 3 4 8 7 6 14 32 41 44 45 42 42 42 42 43 45 47 49 51 52 52